Regional Weather Roundup
Issued by NWS

Home | Current Version | Previous Version | Text Only | Print | Product List | Glossary On
Versions: 1 2 3 4 5 6 7 8 9 10 11 12 13 14 15 16 17 18 19 20 21 22 23 24 25 26 27 28 29 30 31 32 33 34 35 36 37 38 39 40 41 42 43 44 45 46 47 48 49 50
000
ASUS44 KLUB 271201
RWRTX
WEST TEXAS WEATHER ROUNDUP
NATIONAL WEATHER SERVICE LUBBOCK TX
700 AM CDT FRI MAY 27 2016

NOTE: "FAIR" INDICATES FEW OR NO CLOUDS BELOW 12,000 FEET WITH NO
SIGNIFICANT WEATHER AND/OR OBSTRUCTIONS TO VISIBILITY.

TXZ004-006>008-010-012-014-016-OKZ002-271300-
TEXAS PANHANDLE/OKLAHOMA PANHANDLE

CITY           SKY/WX    TMP DP  RH WIND       PRES   REMARKS
AMARILLO       PTCLDY    49  40  71 NW13      29.77S
BORGER         CLEAR     50  42  74 W8        29.75F
CANADIAN       CLOUDY    51  46  84 W3        29.71S
DALHART        CLEAR     45  38  76 NW10      29.82R
DUMAS          CLEAR     45  39  81 NW12      29.77F
GUYMON         PTCLDY    47  40  76 NW12      29.73S
HEREFORD       CLEAR     44  39  82 N8        29.81F
$$

TXZ026-029-035-045-048-271300-
SOUTHERN PANHANDLE/SOUTH PLAINS/ROLLING PLAINS

CITY           SKY/WX    TMP DP  RH WIND       PRES   REMARKS
CHILDRESS      CLOUDY    61  52  72 W8        29.69R
LUBBOCK        PTCLDY    50  35  56 W10       29.77R
SNYDER           N/A     60  59  99 S6        29.75R FOG
$$

TXZ052-054-060>062-072-078-127-140-154-169-271300-
PERMIAN BASIN/CONCHO VALLEY/BIG COUNTRY/EDWARDS PLATEAU

CITY           SKY/WX    TMP DP  RH WIND       PRES   REMARKS
ABILENE        CLOUDY    60  60 100 SE7       29.74R
BROWNWOOD      LGT RAIN  64  64 100 NW13      29.77R
JUNCTION       CLOUDY    76  69  79 S5        29.74R
MIDLAND        CLEAR     63  24  22 NW9       29.81R
ODESSA         CLEAR     63  22  20 NW12      29.82R
SAN ANGELO     CLEAR     63  61  93 CALM      29.74R
WINK           CLEAR     56  24  29 NW10      29.81R
$$

TXZ055-058-074-075-080-082-271300-
FAR WEST/SOUTHWEST MOUNTAINS/TRANS PECOS

CITY           SKY/WX    TMP DP  RH WIND       PRES   REMARKS
DRYDEN           N/A     66  35  31 W10       29.77R
EL PASO        CLEAR     61  20  20 VRB6      29.92R
FORT STOCKTON  CLEAR     65  18  16 W13       29.84R
MARFA          CLEAR     53  15  22 NE3       29.99R
$$

TXZ014-016-019-021>030-083-271300
TEXAS TECH WEST TEXAS MESONET/TEXAS PANHANDLE/NORTHERN SOUTH PLAINS

CITY           SKY/WX    TMP DP  RH WIND       PRES   REMARKS
ABERNATHY 5ENE   N/A     49  38  67 N6        29.78S
AMARILLO 9NNE    N/A     45  41  85 W7        29.79S
AMARILLO 7SSE    N/A     49  41  75 NW14      29.79S
AMHERST 1NE      N/A     51  38  62 NW10      29.82R
BOOTLEG 11WNW    N/A     40  33  76 NW9       29.88R WCI  34
CANADIAN 6E      N/A     50  46  84 W9        29.69F
CAPROCK CYN SP   N/A     59  43  56 NW8       29.74R
CHILDRESS 2NNE   N/A     63  60  90 S9        29.69R
CLARENDON 2WSW   N/A     51  44  77 NW10      29.74S
CLAUDE 12SW      N/A     49  42  78 NW15      29.76S
DIMMITT 2NE      N/A     43  37  79 NW10      29.81S
FLOYDADA 2NNE    N/A     45  40  85 NW7       29.76R
FRIONA 2NE       N/A     41  35  81 NW6       29.85R
GOODLETT 3W      N/A     67  60  77 S16       29.68R
HART 3N          N/A     48  41  76 NW10      29.81R
HEREFORD 2NW     N/A     45  37  74 NW8       29.84F
MCLEAN 1E        N/A     52  45  77 NW10      29.71F
MEMPHIS 1NE      N/A     58  48  68 NW10      29.70S
MULESHOE 2SSW    N/A     41  33  74 SW3       29.85R
OLTON 6S         N/A     49  40  71 NW10      29.81R
PALO DURO SP     N/A     51  42  72 NW10      29.78S
PAMPA 2E         N/A     49  42  79 W8        29.76F
PLAINVIEW 1S     N/A     53  42  67 NW9G16    29.78R
SILVERTON 7ESE   N/A     50  41  72 N7        29.74S
TULIA 2ENE       N/A     47  42  83 NW10G17   29.78S
TURKEY 2WSW      N/A     56  46  68 NW10      29.73S
UMBARGER 3NNE    N/A     43  39  86 NW9       29.81S
$$

TXZ033>036-039>041-045>048-271300
TEXAS TECH WEST TEXAS MESONET/SOUTH PLAINS

CITY           SKY/WX    TMP DP  RH WIND       PRES   REMARKS
AIKEN 3WSW       N/A     49  41  72 N10       29.78R
ANDREWS 2NE      N/A     62  17  17 W9        29.85R
ANTON 6SSW       N/A     53  39  61 W9        29.81R
BROWNFIELD 2S    N/A     53  27  37 NW12      29.81R
DENVR CTY 7WNW   N/A     51  22  32 NW10      29.84R
GAIL 2ESE        N/A     60  36  40 W7        29.76R
LAMESA 2SE       N/A     56  27  31 NW6       29.81R
LEVELLAND 4S     N/A     48  33  57 NW9       29.82R
LUBBOCK 3WNW     N/A     52  34  49 W8        29.80R
MORTON 1ENE      N/A     48  29  48 NW8       29.84R
ODONNELL 1N      N/A     52  29  42 W8        29.79R
PLAINS 3N        N/A     50  26  39 NW8       29.84R
RALLS 1SE        N/A     53  38  56 NW8       29.78R
REESE CENTER     N/A     51  34  53 NW13      29.81R
SEAGRAVES 1SW    N/A     48  27  44 W6        29.83R
SEMINOLE 2NNE    N/A     54  24  30 W9        29.83R
SLATON 2NE       N/A     55  35  45 NW7       29.78R
SNYDER 3E        N/A     60  59  97 S6        29.75R
SUNDOWN 8SW      N/A     49  28  45 NW8       29.83R
TAHOKA 3NNE      N/A     51  29  42 NW8       29.78R
WOLFFORTH 6SSW   N/A     54  31  40 NW10      29.80R
$$

TXZ031-032-036>038-042>044-271300-
TEXAS TECH WEST TEXAS MESONET/ROLLING PLAINS

CITY           SKY/WX    TMP DP  RH WIND       PRES   REMARKS
ASPERMONT 3NE    N/A     64  56  76 S8        29.72R
FLUVANNA 3WNW    N/A     57  52  84 W6        29.75S
GRAHAM 5SSW      N/A     58  29  33 W15       29.76S
GUTHRIE 10WSW    N/A     63  57  79 S8        29.71R
HASKELL 1NW      N/A     63  56  80 S8        29.72R
JAYTON 1SSE      N/A     62  57  83 SE9       29.72R
KNOX CITY 3NW    N/A     63  56  78 S7        29.71R
LK A HENRY 1NW   N/A     57  51  79 W7        29.74R
NORTHFIELD 1S    N/A     55  49  80 W6        29.71S
ODELL 4ENE       N/A     67  60  77 S9        29.70R
PADUCAH 10SW     N/A     64  60  85 S12       29.71R
POST 1NE         N/A     58  33  39 W8        29.75R
RRING SPRGS 3N   N/A     54  45  72 NE8       29.73S
SEYMOUR 3NW      N/A     64  59  82 S9        29.71R
SPUR 1W          N/A     58  56  91 E5        29.73R
WEINERT 2NNE     N/A     62  58  87 S8        29.73R
WHITE RVR 6NE    N/A     53  36  52 W10       29.74R
$$

TXZ052-054-060>062-072-078-127-140-154-169-271300-
TEXAS TECH WEST TEXAS MESONET/PERMIAN BASIN/
CONCHO VALLEY/BIG COUNTRY/EDWARDS PLATEAU

CITY           SKY/WX    TMP DP  RH WIND       PRES   REMARKS
COYANOSA 2N      N/A     63  20  19 W9        29.83R
JUNCTION 1SSW    N/A     75  71  85 S5        29.76R
MERTZON 3NNE     N/A     60  59  97 NW3       29.78R
SAN ANGELO 7NW   N/A     62  60  91 CALM      29.76R
STRLNG CT 4WSW   N/A     56  55  98 CALM      29.77R
ST LAWRNCE 5SW   N/A     59  47  63 NW9       29.79S
WALL 1E          N/A     65  61  86 E5        29.76S
$$

TXZ055-058-074-075-080-082-271300-
TEXAS TECH WEST TEXAS MESONET/FAR WEST/SOUTHWEST MOUNTAINS/TRANS PECOS

CITY           SKY/WX    TMP DP  RH WIND       PRES   REMARKS
PRSMN GAP BBNP   N/A     71  16  12 W6        29.86R
GUADLPE MTN NP   N/A     58  16  19 W12       29.96S
$$




USA.gov is the U.S. government's official web portal to all federal, state and local government web resources and services.